Location: Boiro
(42.6475°N, 8.8834°W)
Time: 07:36:17
(UTC+01:00)

Transit 2A - Pass Details

Date: 09 December 2021
Orbit: 592 x 966 km, 66.7° (Epoch: 28 January)

Event Time Altitude Azimuth Distance (km) Brightness Sun altitude
Exits shadow 07:13:12 - 343° (NNW) 3,161 8.9 -17.8°
Reaches altitude 10° 07:14:59 10° 354° (N) 2,714 8.6 -17.5°
Maximum altitude 07:19:13 18° 35° (NE) 2,171 8.5 -16.8°
Drops below altitude 10° 07:23:22 10° 77° (ENE) 2,663 9.7 -16.0°
Sets 07:26:46 0° 96° (E) 3,560 11.1 -15.4°
